7 * 24
多渠道服务支持
STARLINK-37691(NORAD编号69205)是SpaceX星链(Starlink)互联网星座中的一颗低地球轨道(LEO)卫星。星链项目旨在为全球提供高速宽带互联网接入,尤其覆盖偏远与网络基础设施匮乏地区。该卫星遵循星链标准设计,运行于近地轨道以降低信号延迟,作为大规模星座的组成部分,参与构建全球卫星互联网络,依托SpaceX可复用火箭发射降低组网成本,支撑星链全球覆盖的发展目标。
美国
(US)
| 数据来源 | 国际轨道数据 |
| 星历时间: | 2026-09-11T11:32:08+0800 17小时前 查看轨道信息 |
| 半长轴: | 6840.806km |
| 偏心率: | 0.0000951 |
| 轨道倾角: | 53.157° |
| 近地点辐角 | 91.079° |
| 升交点赤经 | 157.198° |
| 平近点角 | 269.032° |
| 近地点: | 462.018km |
| 远地点: | 463.32km |
| 周期: | 93.847分钟 |
| 每日圈数: | 15.344118 |